Regional Weather Roundup
Issued by NWS Sioux Falls, SD

Home | Current Version | Previous Version | Text Only | Print | Product List | Glossary On
Versions: 1 2 3 4 5 6 7 8 9 10 11 12 13 14 15 16 17 18 19 20 21 22 23 24 25 26 27 28 29 30 31 32 33 34 35 36 37 38 39 40 41 42 43 44 45 46 47 48 49 50
000
ASUS43 KFSD 070802
RWRFSD

WEATHER ROUNDUP FOR SE SOUTH DAKOTA/SW MINNESOTA/NW IOWA
NATIONAL WEATHER SERVICE SIOUX FALLS SD
300 AM CDT THU MAY 07 2015

NOTE: "FAIR" INDICATES FEW OR NO CLOUDS BELOW 12,000 FEET WITH NO
SIGNIFICANT WEATHER AND OR OBSTRUCTIONS TO VISIBILITY.


SDZ038>040-050-052>070-070900-
SOUTHEAST SOUTH DAKOTA

CITY           SKY/WX    TMP DP  RH WIND       PRES   REMARKS
BROOKINGS      CLOUDY    61  59  94 SE15G21   29.66F
CHAMBERLAIN    NOT AVBL
HURON          CLOUDY    61  60  97 S12       29.59F
MADISON        CLOUDY    59  59 100 S17G24    29.64F
MITCHELL       CLOUDY    62  60  93 S9        29.60F
SIOUX FALLS    LGT RAIN  62  59  90 S14       29.64F
WINNER         FAIR      57  54  89 W10       29.61R
YANKTON        CLOUDY    63  57  82 S12G18    29.62S
$$

MNZ071-072-080-081-089-090-097-098-070900-
SOUTHWEST MINNESOTA

CITY           SKY/WX    TMP DP  RH WIND       PRES   REMARKS
FAIRMONT       CLOUDY    66  34  30 S23G30    29.74S
JACKSON        LGT RAIN  63  59  88 SE18G29   29.72F
LUVERNE        LGT RAIN  63  59  88 S15G25    29.67S
MARSHALL       CLOUDY    64  55  72 S17       29.68S
MONTEVIDEO     CLOUDY    64  61  88 S14       29.69S
REDWOOD FALLS  LGT RAIN  64  59  83 SE21G32   29.70F
TRACY          CLOUDY    64  60  88 S16G22    29.69S
WORTHINGTON    CLOUDY    63  55  77 S22G29    29.69S
$$

IAZ001>003-012>014-020>022-031-032-NEZ013-014-SDZ071-070900-
NORTHWEST IOWA

CITY           SKY/WX    TMP DP  RH WIND       PRES   REMARKS
DENISON        CLOUDY    61  61 100 S21G30    29.75R FOG
ESTHERVILLE    CLOUDY    62  59  90 S18       29.73F
SIOUX CITY     LGT RAIN  63  59  87 S18G30    29.67S
SPENCER        LGT RAIN  63  60  90 S29G35    29.71F
$$

ABBREVIATIONS USED IN REMARKS
   TC - TEMPERATURE IN CELSIUS
  WCI - WIND CHILL INDEX
   HX - HEAT INDEX
  VSB - VISIBILITY




USA.gov is the U.S. government's official web portal to all federal, state and local government web resources and services.